EW7342 Weather Reports


time (UTC)temp
F
wind
direction
speed
knots
gust
knots
rain 1hr
in
rain 24hr
in
rain mn
in
humidity
%
barometer
mb
20260508164518 69 175 1.7 4.3 0.00 0.38 0.00 43 1017.5
20260508163519 69 201 0.9 5.2 0.00 0.38 0.00 46 1017.6
20260508162519 68 198 0.9 4.3 0.00 0.38 0.00 48 1017.7
20260508161517 68 192 1.7 5.2 0.00 0.38 0.00 49 1017.9
20260508160517 68 149 1.7 4.3 0.00 0.38 0.00 52 1018.0
20260508155518 67 163 0.9 4.3 0.00 0.38 0.00 50 1018.2
20260508154520 66 0.0 0.0 0.00 0.38 0.00 56 1018.3
20260508153518 65 198 0.9 2.6 0.00 0.38 0.00 50 1018.5
20260508152518 64 343 0.9 2.6 0.00 0.38 0.00 55 1018.4
20260508151518 63 336 0.9 4.3 0.00 0.38 0.00 57 1018.4
20260508150518 62 352 0.9 1.7 0.00 0.38 0.00 60 1018.6
20260508145518 60 350 0.9 1.7 0.00 0.38 0.00 66 1018.6
20260508144539 59 26 0.0 1.7 0.00 0.39 0.00 66 1018.7
20260508143519 59 0.0 0.0 0.00 0.40 0.00 73 1018.7
20260508142519 58 0.0 0.0 0.00 0.40 0.00 77 1018.7
20260508141519 57 128 0.0 3.5 0.00 0.41 0.00 77 1018.8
20260508140519 56 0.0 0.0 0.00 0.42 0.00 86 1018.9
20260508135519 55 0.0 0.0 0.00 0.42 0.00 94 1018.9
20260508134539 54 0.0 0.0 0.00 0.42 0.00 97 1018.8
20260508133520 53 0.0 0.0 0.00 0.42 0.00 99 1018.7
20260508132520 52 0.0 0.0 0.00 0.43 0.00 99 1018.7
20260508131520 52 0.0 0.0 0.00 0.43 0.00 99 1018.6
20260508130520 51 0.0 0.0 0.00 0.43 0.00 99 1018.6
20260508125520 51 0.0 0.0 0.00 0.43 0.00 99 1018.5
20260508124521 51 0.0 0.0 0.00 0.43 0.00 99 1018.4
20260508123521 51 0.0 0.0 0.00 0.44 0.00 99 1018.2
20260508122521 51 0.0 0.0 0.00 0.47 0.00 98 1018.2
20260508121521 52 0.0 0.0 0.00 0.49 0.00 98 1018.1
20260508120521 52 0.0 0.0 0.00 0.53 0.00 98 1018.1
20260508115521 52 0.0 0.0 0.00 0.57 0.00 98 1017.9
20260508114521 52 0.0 0.0 0.00 0.59 0.00 98 1017.7
20260508113521 52 0.0 0.0 0.00 0.60 0.00 98 1017.5
20260508112522 52 0.0 0.0 0.00 0.60 0.00 98 1017.3
20260508111522 52 0.0 0.0 0.00 0.61 0.00 98 1017.2
20260508110542 52 0.0 0.0 0.00 0.62 0.00 98 1017.1
20260508105522 52 0.0 0.0 0.00 0.63 0.00 98 1017.0
20260508104523 52 0.0 0.0 0.00 0.63 0.00 98 1016.8
20260508103522 53 0.0 0.0 0.00 0.63 0.00 98 1016.5
20260508102543 53 0.0 0.0 0.00 0.63 0.00 98 1016.3
20260508101523 53 0.0 0.0 0.00 0.63 0.00 98 1016.2
20260508100523 53 0.0 0.0 0.00 0.63 0.00 98 1016.3
20260508095523 53 0.0 0.0 0.00 0.63 0.00 98 1016.1
20260508094523 53 0.0 0.0 0.00 0.63 0.00 98 1016.1
20260508093524 53 0.0 0.0 0.00 0.64 0.00 98 1016.1
20260508092524 53 0.0 0.0 0.00 0.64 0.00 98 1016.0
20260508091524 53 0.0 0.0 0.00 0.64 0.00 98 1015.9
20260508090524 53 0.0 0.0 0.00 0.64 0.00 98 1015.9
20260508085524 53 0.0 0.0 0.00 0.64 0.00 98 1015.8
20260508084524 53 0.0 0.0 0.00 0.65 0.00 98 1015.8
20260508083524 53 0.0 0.0 0.00 0.65 0.00 98 1015.7
20260508082545 53 0.0 0.0 0.00 0.66 0.00 98 1015.5
20260508081525 53 0.0 0.0 0.00 0.67 0.00 98 1015.5
20260508080525 53 0.0 0.0 0.00 0.70 0.00 98 1015.4
20260508075525 53 0.0 0.0 0.00 0.72 0.00 98 1015.2
20260508074525 53 0.0 0.0 0.00 0.74 0.00 98 1015.2
20260508073526 54 0.0 0.0 0.00 0.78 0.00 98 1015.2
20260508072545 54 0.0 0.0 0.00 0.80 0.00 98 1015.2
20260508071526 54 0.0 0.0 0.00 0.84 0.00 98 1015.1
20260508070526 54 0.0 0.0 0.00 0.87 0.00 98 1015.0
20260508065526 54 0.0 0.0 0.00 0.91 0.00 98 1015.0
20260508064527 54 0.0 0.0 0.00 1.01 0.00 98 1014.9
20260508063526 54 0.0 0.0 0.00 1.17 0.00 98 1015.0
20260508062527 54 0.0 0.0 0.00 1.24 0.00 98 1015.1
20260508061527 54 0.0 0.0 0.00 1.31 0.00 98 1015.1
20260508060527 55 0.0 0.0 0.00 1.36 0.00 98 1015.1
20260508055607 55 0.0 0.0 0.00 1.39 0.00 98 1015.1
20260508054527 55 0.0 0.0 0.00 1.47 0.00 98 1015.1
20260508053547 55 0.0 0.0 0.00 1.59 0.00 98 1015.0
20260508052527 55 0.0 0.0 0.00 1.62 0.00 98 1014.9
20260508051528 55 0.0 0.0 0.00 1.62 0.00 98 1014.9
20260508050528 56 0.0 0.0 0.00 1.62 0.00 98 1014.9
20260508045548 56 0.0 0.0 0.00 1.62 0.00 98 1014.8
20260508044528 56 0.0 0.0 0.00 1.62 0.00 98 1014.7
20260508043529 56 0.0 0.0 0.00 1.62 0.00 98 1014.6
20260508042529 56 0.0 0.0 0.00 1.62 0.00 98 1014.6
20260508041529 56 0.0 0.0 0.00 1.62 0.00 98 1014.5
20260508040549 56 0.0 0.0 0.00 1.62 0.00 98 1014.5
20260508035529 56 0.0 0.0 0.00 1.62 1.62 98 1014.5
20260508034529 56 0.0 0.0 0.00 1.62 1.62 98 1014.4
20260508033529 57 0.0 0.0 0.00 1.62 1.62 98 1014.4
20260508032530 57 0.0 0.0 0.00 1.63 1.62 98 1014.3
20260508031530 57 0.0 0.0 0.00 1.64 1.62 99 1014.4
20260508030530 57 0.0 0.0 0.00 1.67 1.62 99 1014.2
20260508025517 58 0.0 0.0 0.00 1.68 1.62 99 1014.3
20260508024537 58 0.0 0.0 0.00 1.74 1.62 99 1014.2
20260508023517 58 0.0 0.0 0.00 1.80 1.62 99 1014.0
20260508022517 58 0.0 0.0 0.00 1.85 1.62 99 1014.0
20260508021517 58 0.0 0.0 0.00 1.91 1.62 99 1013.8
20260508020517 58 0.0 0.0 0.00 1.92 1.62 99 1013.6
20260508015517 58 0.0 0.0 0.00 1.97 1.62 99 1013.6
20260508014518 58 0.0 0.0 0.00 1.99 1.62 99 1013.3
20260508013518 58 0.0 0.0 0.00 2.20 1.62 99 1013.1
20260508012518 58 0.0 0.0 0.00 2.33 1.62 99 1012.9
20260508011518 58 0.0 0.0 0.00 2.34 1.62 99 1012.9
20260508010539 59 0.0 0.0 0.00 2.37 1.62 99 1012.6
20260508005527 59 12 0.0 0.0 0.01 2.40 1.62 99 1012.6
20260508004519 59 0.0 0.0 0.01 2.43 1.62 99 1012.5
20260508003519 59 0.0 0.0 0.01 2.46 1.62 99 1012.1
20260508002540 59 0.0 0.0 0.02 2.48 1.62 99 1011.9
20260508001519 60 0.0 0.0 0.15 2.48 1.62 99 1011.5
20260508000519 60 0.0 0.0 0.21 2.48 1.62 99 1011.3
20260507235540 60 50 0.9 2.6 0.33 2.48 1.62 98 1011.2
20260507234520 60 0.0 0.0 0.37 2.48 1.61 98 1010.9
20260507233520 60 215 0.0 0.9 0.37 2.48 1.61 97 1010.1
20260507232540 61 16 0.0 1.7 0.36 2.47 1.60 97 1010.0
20260507231521 62 351 1.7 3.5 0.22 2.33 1.47 95 1010.3
20260507230520 63 152 0.0 1.7 0.16 2.27 1.41 94 1010.0
20260507225521 65 8 0.9 3.5 0.05 2.15 1.29 88 1009.6
20260507224521 66 358 0.9 2.6 0.00 2.11 1.24 86 1009.2
20260507223521 68 15 1.7 3.5 0.00 2.11 1.24 84 1008.9
20260507222522 71 359 2.6 3.5 0.00 2.11 1.24 79 1008.7
20260507221538 76 4 2.6 6.1 0.00 2.11 1.24 73 1008.5
20260507220522 77 65 0.0 0.9 0.00 2.11 1.24 72 1007.9
20260507215521 77 201 1.7 4.3 0.00 2.11 1.24 72 1007.8
20260507214519 77 202 1.7 4.3 0.00 2.11 1.24 71 1007.6
20260507213519 77 219 2.6 6.1 0.00 2.11 1.24 69 1007.4
20260507212519 77 197 2.6 6.1 0.00 2.11 1.24 69 1007.4
20260507211520 78 201 2.6 6.1 0.00 2.11 1.24 68 1007.4
20260507210522 78 199 1.7 4.3 0.00 2.11 1.24 68 1007.5
20260507205434 79 0.0 0.0 0.00 2.11 1.24 67 1007.5
20260507205022 78 0.0 0.0 0.00 2.11 1.24 66 1007.6
20260507204023 77 212 0.9 3.5 0.00 2.11 1.24 68 1007.4
20260507203023 76 212 1.7 4.3 0.00 2.11 1.24 69 1007.7
20260507202023 77 169 0.9 3.5 0.00 2.11 1.24 70 1007.8
20260507201020 77 194 1.7 5.2 0.00 2.11 1.24 70 1007.9
20260507200020 77 195 0.9 5.2 0.00 2.11 1.24 68 1007.8
20260507195021 77 201 0.9 4.3 0.00 2.11 1.24 69 1008.1
20260507194023 77 176 0.9 3.5 0.00 2.11 1.24 69 1008.1
20260507193023 77 199 0.9 3.5 0.00 2.11 1.24 70 1008.5
20260507192024 77 179 0.9 4.3 0.00 2.11 1.24 70 1008.7
20260507191024 76 189 0.9 3.5 0.00 2.11 1.24 72 1008.7
20260507190024 76 210 0.9 2.6 0.00 2.11 1.24 72 1008.8
20260507185025 76 0.0 0.0 0.00 2.11 1.24 74 1008.8
20260507184105 75 207 0.9 4.3 0.00 2.11 1.24 74 1008.7
20260507183024 74 201 1.7 3.5 0.00 2.11 1.24 77 1008.9
20260507182025 73 175 0.9 2.6 0.00 2.11 1.24 82 1008.7
20260507181025 72 4 0.9 1.7 0.00 2.11 1.24 85 1008.9
20260507180025 72 17 0.0 1.7 0.00 2.11 1.24 84 1009.0
20260507175026 71 210 0.0 1.7 0.00 2.13 1.24 87 1009.1
20260507174025 69 185 0.9 2.6 0.00 2.20 1.24 87 1009.6
20260507173025 68 0.0 0.0 0.00 2.20 1.24 96 1009.8
20260507172026 68 183 0.9 3.5 0.00 2.20 1.24 99 1009.8
20260507171026 67 151 0.0 2.6 0.00 2.20 1.24 99 1009.4
20260507170026 67 0.0 0.0 0.00 2.20 1.24 99 1009.9